All frames :
| Receiver |
Date |
Latitude |
Longitude |
Direction |
Speed |
Altitude |
Climb |
Temperature |
Humidity |
Pressure |
Voltage |
Killtimer |
Uptime |
BKT |
XDATA |
| AA1-15 | 2026-08-31 01:14:47 | -14.77407 | 177.49032 | 0° | 0km/h | 159087m | 0m/s | -52.2°C | 0% | 68.8hPa | 2.1V | 00:00:00 | 00:00:00 | 00:00:00 | |
| AA1-15 | 2026-08-31 01:13:37 | -14.77407 | 177.49032 | 0° | 0km/h | 159087m | 0m/s | -53°C | 0% | 51.9hPa | 2.1V | 00:00:00 | 00:00:00 | 00:00:00 | |
| AA1-15 | 2026-08-31 01:13:25 | -14.77407 | 177.49032 | 0° | 0km/h | 159087m | 0m/s | -53.3°C | 0% | 49.2hPa | 2.1V | 00:00:00 | 00:00:00 | 00:00:00 | |
| AA1-15 | 2026-08-31 01:13:14 | -14.77407 | 177.49032 | 0° | 0km/h | 159087m | 0m/s | -53.5°C | 0% | 46.8hPa | 2.1V | 00:00:00 | 00:00:00 | 00:00:00 | |
| AA1-15 | 2026-08-31 01:12:59 | -14.77407 | 177.49032 | 0° | 0km/h | 159087m | 0m/s | -52.8°C | 0% | 43.8hPa | 2.1V | 00:00:00 | 00:00:00 | 00:00:00 | |
| AA1-15 | 2026-08-31 01:12:48 | -14.77407 | 177.49032 | 0° | 0km/h | 159087m | 0m/s | -52°C | 0% | 41.8hPa | 2.1V | 00:00:00 | 00:00:00 | 00:00:00 | |
| AA1-15 | 2026-08-31 01:12:35 | -14.77407 | 177.49032 | 0° | 0km/h | 159087m | 0m/s | -52.2°C | 0% | 39.5hPa | 2.1V | 00:00:00 | 00:00:00 | 00:00:00 | |
| AA1-15 | 2026-08-31 01:12:23 | -14.77407 | 177.49032 | 0° | 0km/h | 159087m | 0m/s | -53°C | 0% | 37.4hPa | 2.2V | 00:00:00 | 00:00:00 | 00:00:00 | |
| AA1-15 | 2026-08-31 01:12:13 | -14.77407 | 177.49032 | 0° | 0km/h | 159087m | 0m/s | -52.7°C | 0% | 35.6hPa | 2.2V | 00:00:00 | 00:00:00 | 00:00:00 | |
| AA1-15 | 2026-08-31 01:12:00 | -14.77407 | 177.49032 | 0° | 0km/h | 159087m | 0m/s | -52.9°C | 0% | 33.4hPa | 2.2V | 00:00:00 | 00:00:00 | 00:00:00 | |
| AA1-15 | 2026-08-31 01:11:49 | -14.77407 | 177.49032 | 0° | 0km/h | 159087m | 0m/s | -53.3°C | 0% | 31.7hPa | 2.2V | 00:00:00 | 00:00:00 | 00:00:00 | |
| AA1-15 | 2026-08-31 01:11:38 | -14.77407 | 177.49032 | 0° | 0km/h | 159087m | 0m/s | -53.2°C | 0% | 30hPa | 2.2V | 00:00:00 | 00:00:00 | 00:00:00 | |
| AA1-15 | 2026-08-31 01:11:28 | -14.77407 | 177.49032 | 0° | 0km/h | 159087m | 0m/s | -53.3°C | 0% | 28.5hPa | 2.2V | 00:00:00 | 00:00:00 | 00:00:00 | |
| AA1-15 | 2026-08-31 01:11:16 | -14.77407 | 177.49032 | 0° | 0km/h | 159087m | 0m/s | -52.7°C | 0% | 26.8hPa | 2.2V | 00:00:00 | 00:00:00 | 00:00:00 | |
| AA1-15 | 2026-08-31 01:11:06 | -14.77407 | 177.49032 | 0° | 0km/h | 159087m | 0m/s | -52°C | 0% | 25.2hPa | 2.2V | 00:00:00 | 00:00:00 | 00:00:00 | |
| AA1-15 | 2026-08-31 01:10:54 | -14.77407 | 177.49032 | 0° | 0km/h | 159087m | 0m/s | -51.6°C | 0% | 23.6hPa | 2.2V | 00:00:00 | 00:00:00 | 00:00:00 | |
| AA1-15 | 2026-08-31 01:10:43 | -14.77407 | 177.49032 | 0° | 0km/h | 159087m | 0m/s | -51.8°C | 0% | 22.1hPa | 2.2V | 00:00:00 | 00:00:00 | 00:00:00 | |
| AA1-15 | 2026-08-31 01:10:32 | -14.77407 | 177.49032 | 0° | 0km/h | 159087m | 0m/s | -50.2°C | 0% | 20.8hPa | 2.2V | 00:00:00 | 00:00:00 | 00:00:00 | |
| AA1-15 | 2026-08-31 01:10:22 | -14.77407 | 177.49032 | 0° | 0km/h | 159087m | 0m/s | -50.2°C | 0% | 19.7hPa | 2.2V | 00:00:00 | 00:00:00 | 00:00:00 | |
| AA1-15 | 2026-08-31 01:10:11 | -14.77407 | 177.49032 | 0° | 0km/h | 159087m | 0m/s | -50°C | 0% | 18.4hPa | 2.2V | 00:00:00 | 00:00:00 | 00:00:00 | |
| AA1-15 | 2026-08-31 01:10:01 | -14.77407 | 177.49032 | 0° | 0km/h | 159087m | 0m/s | -49.1°C | 0% | 17.4hPa | 2.2V | 00:00:00 | 00:00:00 | 00:00:00 | |
| AA1-15 | 2026-08-31 01:09:51 | -14.77407 | 177.49032 | 0° | 0km/h | 159087m | 0m/s | -48.9°C | 0% | 16.4hPa | 2.2V | 00:00:00 | 00:00:00 | 00:00:00 | |
| AA1-15 | 2026-08-31 01:09:40 | -14.77407 | 177.49032 | 0° | 0km/h | 159087m | 0m/s | -48.7°C | 0% | 15.2hPa | 2.3V | 00:00:00 | 00:00:00 | 00:00:00 | |
| AA1-15 | 2026-08-31 01:09:29 | -14.77407 | 177.49032 | 0° | 0km/h | 159087m | 0m/s | -47.7°C | 0% | 14.2hPa | 2.3V | 00:00:00 | 00:00:00 | 00:00:00 | |
| AA1-15 | 2026-08-31 01:09:18 | -14.77407 | 177.49032 | 0° | 0km/h | 159087m | 0m/s | -46.6°C | 0% | 13.1hPa | 2.4V | 00:00:00 | 00:00:00 | 00:00:00 | |
| AA1-15 | 2026-08-31 01:09:07 | -14.77407 | 177.49032 | 0° | 0km/h | 159087m | 0m/s | -45.7°C | 0% | 12.2hPa | 2.5V | 00:00:00 | 00:00:00 | 00:00:00 | |
| AA1-15 | 2026-08-31 01:08:56 | -14.77407 | 177.49032 | 0° | 0km/h | 159087m | 0m/s | -44.9°C | 0% | 11.3hPa | 2.4V | 00:00:00 | 00:00:00 | 00:00:00 | |
| AA1-15 | 2026-08-31 01:08:45 | -14.77407 | 177.49032 | 0° | 0km/h | 159087m | 0m/s | -44.7°C | 0% | 10.5hPa | 2.5V | 00:00:00 | 00:00:00 | 00:00:00 | |
| AA1-15 | 2026-08-31 01:08:34 | -14.77407 | 177.49032 | 0° | 0km/h | 159087m | 0m/s | -42.8°C | 0% | 9.6hPa | 2.5V | 00:00:00 | 00:00:00 | 00:00:00 | |
| AA1-15 | 2026-08-31 01:08:23 | -14.77407 | 177.49032 | 0° | 0km/h | 159087m | 0m/s | -43.6°C | 0% | 8.9hPa | 2.5V | 00:00:00 | 00:00:00 | 00:00:00 | |
| AA1-15 | 2026-08-31 01:08:12 | -14.77407 | 177.49032 | 0° | 0km/h | 159087m | 0m/s | -41.9°C | 0% | 8hPa | 2.5V | 00:00:00 | 00:00:00 | 00:00:00 | |
| AA1-15 | 2026-08-31 01:08:01 | -14.77407 | 177.49032 | 0° | 0km/h | 159087m | 0m/s | -41.7°C | 0% | 7.3hPa | 2.5V | 00:00:00 | 00:00:00 | 00:00:00 | |
| AA1-15 | 2026-08-31 01:07:50 | -14.77407 | 177.49032 | 0° | 0km/h | 159087m | 0m/s | -38.3°C | 0% | 6.7hPa | 2.5V | 00:00:00 | 00:00:00 | 00:00:00 | |
| AA1-15 | 2026-08-31 01:07:40 | -14.77407 | 177.49032 | 0° | 0km/h | 159087m | 0m/s | -35.1°C | 0% | 6hPa | 2.5V | 00:00:00 | 00:00:00 | 00:00:00 | |
| AA1-15 | 2026-08-31 01:07:29 | -14.77407 | 177.49032 | 0° | 0km/h | 159087m | 0m/s | -33.9°C | 0% | 5.4hPa | 2.5V | 00:00:00 | 00:00:00 | 00:00:00 | |
| AA1-15 | 2026-08-31 01:07:18 | -14.77407 | 177.49032 | 0° | 0km/h | 159087m | 0m/s | -33.5°C | 0% | 4.8hPa | 2.5V | 00:00:00 | 00:00:00 | 00:00:00 | |
| AA1-15 | 2026-08-31 01:07:07 | -14.77407 | 177.49032 | 0° | 0km/h | 159087m | 0m/s | -33.7°C | 0% | 4.2hPa | 2.5V | 00:00:00 | 00:00:00 | 00:00:00 | |
| AA1-15 | 2026-08-31 01:06:56 | -14.77407 | 177.49032 | 0° | 0km/h | 159087m | 0m/s | -35°C | 0% | 3.8hPa | 2.5V | 00:00:00 | 00:00:00 | 00:00:00 | |
| AA1-15 | 2026-08-31 01:06:45 | -14.77407 | 177.49032 | 0° | 0km/h | 159087m | 0m/s | -32.4°C | 0% | 3.5hPa | 2.5V | 00:00:00 | 00:00:00 | 00:00:00 | |
| AA1-15 | 2026-08-31 01:06:32 | -14.77407 | 177.49032 | 0° | 0km/h | 159087m | 0m/s | -33°C | 0% | 3.4hPa | 2.5V | 00:00:00 | 00:00:00 | 00:00:00 | |
| AA1-15 | 2026-08-31 01:06:21 | -14.77407 | 177.49032 | 0° | 0km/h | 159087m | 0m/s | -33.8°C | 0% | 3.5hPa | 2.5V | 00:00:00 | 00:00:00 | 00:00:00 | |
| AA1-15 | 2026-08-31 01:06:11 | -14.77407 | 177.49032 | 0° | 0km/h | 159087m | 0m/s | -34.5°C | 0% | 3.5hPa | 2.5V | 00:00:00 | 00:00:00 | 00:00:00 | |
| AA1-15 | 2026-08-31 01:06:01 | -14.77407 | 177.49032 | 0° | 0km/h | 159087m | 0m/s | -34.9°C | 0% | 3.5hPa | 2.5V | 00:00:00 | 00:00:00 | 00:00:00 | |
| AA1-15 | 2026-08-31 01:05:50 | -14.77407 | 177.49032 | 0° | 0km/h | 159087m | 0m/s | -35.3°C | 0% | 3.6hPa | 2.5V | 00:00:00 | 00:00:00 | 00:00:00 | |
| AA1-15 | 2026-08-31 01:05:39 | -14.77407 | 177.49032 | 0° | 0km/h | 159087m | 0m/s | -35.5°C | 0% | 3.7hPa | 2.5V | 00:00:00 | 00:00:00 | 00:00:00 | |
| AA1-15 | 2026-08-31 01:05:29 | -14.77407 | 177.49032 | 0° | 0km/h | 159087m | 0m/s | -35.7°C | 0% | 3.7hPa | 2.5V | 00:00:00 | 00:00:00 | 00:00:00 | |
| AA1-15 | 2026-08-31 01:05:18 | -14.77407 | 177.49032 | 0° | 0km/h | 159087m | 0m/s | -35.7°C | 0% | 3.8hPa | 2.5V | 00:00:00 | 00:00:00 | 00:00:00 | |
| AA1-15 | 2026-08-31 01:05:07 | -14.77407 | 177.49032 | 0° | 0km/h | 159087m | 0m/s | -35.3°C | 0% | 3.9hPa | 2.5V | 00:00:00 | 00:00:00 | 00:00:00 | |
| AA1-15 | 2026-08-31 01:04:56 | -14.77407 | 177.49032 | 0° | 0km/h | 159087m | 0m/s | -34.9°C | 0% | 3.9hPa | 2.5V | 00:00:00 | 00:00:00 | 00:00:00 | |
| AA1-15 | 2026-08-31 01:04:45 | -14.77407 | 177.49032 | 0° | 0km/h | 159087m | 0m/s | -34.7°C | 0% | 3.9hPa | 2.5V | 00:00:00 | 00:00:00 | 00:00:00 | |
| AA1-15 | 2026-08-31 01:04:34 | -14.77407 | 177.49032 | 0° | 0km/h | 159087m | 0m/s | -34.5°C | 0% | 4hPa | 2.5V | 00:00:00 | 00:00:00 | 00:00:00 | |
| AA1-15 | 2026-08-31 01:04:24 | -14.77407 | 177.49032 | 0° | 0km/h | 159087m | 0m/s | -34.3°C | 0% | 4.1hPa | 2.5V | 00:00:00 | 00:00:00 | 00:00:00 | |
| AA1-15 | 2026-08-31 01:04:12 | -14.77407 | 177.49032 | 0° | 0km/h | 159087m | 0m/s | -34.2°C | 0% | 4.2hPa | 2.5V | 00:00:00 | 00:00:00 | 00:00:00 | |
| AA1-15 | 2026-08-31 01:04:01 | -14.77407 | 177.49032 | 0° | 0km/h | 159087m | 0m/s | -34°C | 0% | 4.2hPa | 2.4V | 00:00:00 | 00:00:00 | 00:00:00 | |
| AA1-15 | 2026-08-31 01:03:51 | -14.77407 | 177.49032 | 0° | 0km/h | 159087m | 0m/s | -33.8°C | 0% | 4.2hPa | 2.4V | 00:00:00 | 00:00:00 | 00:00:00 | |
| AA1-15 | 2026-08-31 01:03:41 | -14.77407 | 177.49032 | 0° | 0km/h | 159087m | 0m/s | -34°C | 0% | 4.3hPa | 2.4V | 00:00:00 | 00:00:00 | 00:00:00 | |
| AA1-15 | 2026-08-31 01:03:31 | -14.77407 | 177.49032 | 0° | 0km/h | 159087m | 0m/s | -34°C | 0% | 4.3hPa | 2.4V | 00:00:00 | 00:00:00 | 00:00:00 | |
| AA1-15 | 2026-08-31 01:03:20 | -14.77407 | 177.49032 | 0° | 0km/h | 159087m | 0m/s | -34.3°C | 0% | 4.4hPa | 2.4V | 00:00:00 | 00:00:00 | 00:00:00 | |
| AA1-15 | 2026-08-31 01:03:09 | -14.77407 | 177.49032 | 0° | 0km/h | 159087m | 0m/s | -34.4°C | 0% | 4.5hPa | 2.4V | 00:00:00 | 00:00:00 | 00:00:00 | |
| AA1-15 | 2026-08-31 01:02:57 | -14.77407 | 177.49032 | 0° | 0km/h | 159087m | 0m/s | -34.4°C | 0% | 4.6hPa | 2.4V | 00:00:00 | 00:00:00 | 00:00:00 | |
| AA1-15 | 2026-08-31 01:02:47 | -14.77407 | 177.49032 | 0° | 0km/h | 159087m | 0m/s | -34.3°C | 0% | 4.6hPa | 2.4V | 00:00:00 | 00:00:00 | 00:00:00 | |
| AA1-15 | 2026-08-31 01:02:36 | -14.77407 | 177.49032 | 0° | 0km/h | 159087m | 0m/s | -34.4°C | 0% | 4.7hPa | 2.4V | 00:00:00 | 00:00:00 | 00:00:00 | |
| AA1-15 | 2026-08-31 01:02:25 | -14.77407 | 177.49032 | 0° | 0km/h | 159087m | 0m/s | -34.7°C | 0% | 4.7hPa | 2.4V | 00:00:00 | 00:00:00 | 00:00:00 | |
| AA1-15 | 2026-08-31 01:02:15 | -14.77407 | 177.49032 | 0° | 0km/h | 159087m | 0m/s | -34.6°C | 0% | 4.8hPa | 2.2V | 00:00:00 | 00:00:00 | 00:00:00 | |
| AA1-15 | 2026-08-31 01:02:04 | -14.77407 | 177.49032 | 0° | 0km/h | 159087m | 0m/s | -34.9°C | 0% | 4.9hPa | 2.2V | 00:00:00 | 00:00:00 | 00:00:00 | |
| AA1-15 | 2026-08-31 01:01:53 | -14.77407 | 177.49032 | 0° | 0km/h | 159087m | 0m/s | -34.9°C | 0% | 4.9hPa | 2.2V | 00:00:00 | 00:00:00 | 00:00:00 | |
| AA1-15 | 2026-08-31 01:01:43 | -14.77407 | 177.49032 | 0° | 0km/h | 159087m | 0m/s | -35.1°C | 0% | 5hPa | 2.2V | 00:00:00 | 00:00:00 | 00:00:00 | |
| AA1-15 | 2026-08-31 01:01:32 | -14.77407 | 177.49032 | 0° | 0km/h | 159087m | 0m/s | -35.3°C | 0% | 5.1hPa | 2.2V | 00:00:00 | 00:00:00 | 00:00:00 | |
| AA1-15 | 2026-08-31 01:01:21 | -14.77407 | 177.49032 | 0° | 0km/h | 159087m | 0m/s | -35.6°C | 0% | 5.1hPa | 2.2V | 00:00:00 | 00:00:00 | 00:00:00 | |
| AA1-15 | 2026-08-31 01:01:11 | -14.77407 | 177.49032 | 0° | 0km/h | 159087m | 0m/s | -35.6°C | 0% | 5.2hPa | 2.2V | 00:00:00 | 00:00:00 | 00:00:00 | |
| AA1-15 | 2026-08-31 01:01:01 | -14.77407 | 177.49032 | 0° | 0km/h | 159087m | 0m/s | -35.6°C | 0% | 5.2hPa | 2.2V | 00:00:00 | 00:00:00 | 00:00:00 | |
| AA1-15 | 2026-08-31 00:59:51 | -14.77407 | 177.49032 | 0° | 0km/h | 159087m | 0m/s | -37.4°C | 0% | 5.6hPa | 2.2V | 00:00:00 | 00:00:00 | 00:00:00 | |
| AA1-15 | 2026-08-31 00:59:40 | -14.77407 | 177.49032 | 0° | 0km/h | 159087m | 0m/s | -37.3°C | 0% | 5.7hPa | 2.2V | 00:00:00 | 00:00:00 | 00:00:00 | |
| AA1-15 | 2026-08-31 00:59:30 | -14.77407 | 177.49032 | 0° | 0km/h | 159087m | 0m/s | -37.4°C | 0% | 5.8hPa | 2.2V | 00:00:00 | 00:00:00 | 00:00:00 | |
| AA1-15 | 2026-08-31 00:59:19 | -14.77407 | 177.49032 | 0° | 0km/h | 159087m | 0m/s | -37.6°C | 0% | 5.9hPa | 2.2V | 00:00:00 | 00:00:00 | 00:00:00 | |
| AA1-15 | 2026-08-31 00:59:06 | -14.77407 | 177.49032 | 0° | 0km/h | 159087m | 0m/s | -37.9°C | 0% | 6hPa | 2.2V | 00:00:00 | 00:00:00 | 00:00:00 | |
| AA1-15 | 2026-08-31 00:58:55 | -14.77407 | 177.49032 | 0° | 0km/h | 159087m | 0m/s | -38.4°C | 0% | 6hPa | 2.2V | 00:00:00 | 00:00:00 | 00:00:00 | |
| AA1-15 | 2026-08-31 00:58:45 | -14.77407 | 177.49032 | 0° | 0km/h | 159087m | 0m/s | -38.5°C | 0% | 6.1hPa | 2.2V | 00:00:00 | 00:00:00 | 00:00:00 | |
| AA1-15 | 2026-08-31 00:58:32 | -14.77407 | 177.49032 | 0° | 0km/h | 159087m | 0m/s | -38.6°C | 0% | 6.2hPa | 2.2V | 00:00:00 | 00:00:00 | 00:00:00 | |
| AA1-15 | 2026-08-31 00:58:22 | -14.77407 | 177.49032 | 0° | 0km/h | 159087m | 0m/s | -39°C | 0% | 6.3hPa | 2.2V | 00:00:00 | 00:00:00 | 00:00:00 | |
| AA1-15 | 2026-08-31 00:58:05 | -14.77407 | 177.49032 | 0° | 0km/h | 159087m | 0m/s | -39.6°C | 0% | 6.4hPa | 2.2V | 00:00:00 | 00:00:00 | 00:00:00 | |
| AA1-15 | 2026-08-31 00:57:54 | -14.77407 | 177.49032 | 0° | 0km/h | 159087m | 0m/s | -40.2°C | 0% | 6.5hPa | 2.2V | 00:00:00 | 00:00:00 | 00:00:00 | |
| AA1-15 | 2026-08-31 00:57:43 | -14.77407 | 177.49032 | 0° | 0km/h | 159087m | 0m/s | -40.5°C | 0% | 6.5hPa | 2.2V | 00:00:00 | 00:00:00 | 00:00:00 | |
| AA1-15 | 2026-08-31 00:57:32 | -14.77407 | 177.49032 | 0° | 0km/h | 159087m | 0m/s | -40.7°C | 0% | 6.6hPa | 2.2V | 00:00:00 | 00:00:00 | 00:00:00 | |
| AA1-15 | 2026-08-31 00:57:20 | -14.77407 | 177.49032 | 0° | 0km/h | 159087m | 0m/s | -41.5°C | 0% | 6.7hPa | 2.2V | 00:00:00 | 00:00:00 | 00:00:00 | |
| AA1-15 | 2026-08-31 00:57:08 | -14.77407 | 177.49032 | 0° | 0km/h | 159087m | 0m/s | -41.6°C | 0% | 6.9hPa | 2.2V | 00:00:00 | 00:00:00 | 00:00:00 | |
| AA1-15 | 2026-08-31 00:56:58 | -14.77407 | 177.49032 | 0° | 0km/h | 159087m | 0m/s | -41.6°C | 0% | 6.9hPa | 2.2V | 00:00:00 | 00:00:00 | 00:00:00 | |
| AA1-15 | 2026-08-31 00:56:47 | -14.77407 | 177.49032 | 0° | 0km/h | 159087m | 0m/s | -41.9°C | 0% | 7hPa | 2.2V | 00:00:00 | 00:00:00 | 00:00:00 | |
| AA1-15 | 2026-08-31 00:56:35 | -14.77407 | 177.49032 | 0° | 0km/h | 159087m | 0m/s | -42.3°C | 0% | 7.1hPa | 2.2V | 00:00:00 | 00:00:00 | 00:00:00 | |
| AA1-15 | 2026-08-31 00:56:24 | -14.77407 | 177.49032 | 0° | 0km/h | 159087m | 0m/s | -42.6°C | 0% | 7.2hPa | 2.2V | 00:00:00 | 00:00:00 | 00:00:00 | |
| AA1-15 | 2026-08-31 00:56:13 | -14.77407 | 177.49032 | 0° | 0km/h | 159087m | 0m/s | -42.9°C | 0% | 7.3hPa | 2.2V | 00:00:00 | 00:00:00 | 00:00:00 | |
| AA1-15 | 2026-08-31 00:56:02 | -14.77407 | 177.49032 | 0° | 0km/h | 159087m | 0m/s | -42.5°C | 0% | 7.4hPa | 2.2V | 00:00:00 | 00:00:00 | 00:00:00 | |
| AA1-15 | 2026-08-31 00:55:49 | -14.77407 | 177.49032 | 0° | 0km/h | 159087m | 0m/s | -42.7°C | 0% | 7.5hPa | 2.2V | 00:00:00 | 00:00:00 | 00:00:00 | |
| AA1-15 | 2026-08-31 00:55:38 | -14.77407 | 177.49032 | 0° | 0km/h | 159087m | 0m/s | -42.6°C | 0% | 7.6hPa | 2.2V | 00:00:00 | 00:00:00 | 00:00:00 | |
| AA1-15 | 2026-08-31 00:55:27 | -14.77407 | 177.49032 | 0° | 0km/h | 159087m | 0m/s | -42.3°C | 0% | 7.7hPa | 2.2V | 00:00:00 | 00:00:00 | 00:00:00 | |
| AA1-15 | 2026-08-31 00:55:17 | -14.77407 | 177.49032 | 0° | 0km/h | 159087m | 0m/s | -42.2°C | 0% | 7.8hPa | 2.2V | 00:00:00 | 00:00:00 | 00:00:00 | |
| AA1-15 | 2026-08-31 00:55:06 | -14.77407 | 177.49032 | 0° | 0km/h | 159087m | 0m/s | -42.2°C | 0% | 7.9hPa | 2.2V | 00:00:00 | 00:00:00 | 00:00:00 | |
| AA1-15 | 2026-08-31 00:54:54 | -14.77407 | 177.49032 | 0° | 0km/h | 159087m | 0m/s | -42°C | 0% | 8hPa | 2.2V | 00:00:00 | 00:00:00 | 00:00:00 | |
| AA1-15 | 2026-08-31 00:54:42 | -14.77407 | 177.49032 | 0° | 0km/h | 159087m | 0m/s | -42.3°C | 0% | 8.1hPa | 2.2V | 00:00:00 | 00:00:00 | 00:00:00 | |
| AA1-15 | 2026-08-31 00:54:31 | -14.77407 | 177.49032 | 0° | 0km/h | 159087m | 0m/s | -42.1°C | 0% | 8.2hPa | 2.2V | 00:00:00 | 00:00:00 | 00:00:00 | |
| AA1-15 | 2026-08-31 00:54:21 | -14.77407 | 177.49032 | 0° | 0km/h | 159087m | 0m/s | -42.3°C | 0% | 8.3hPa | 2.2V | 00:00:00 | 00:00:00 | 00:00:00 | |
| AA1-15 | 2026-08-31 00:54:10 | -14.77407 | 177.49032 | 0° | 0km/h | 159087m | 0m/s | -42.7°C | 0% | 8.4hPa | 2.2V | 00:00:00 | 00:00:00 | 00:00:00 | |
| AA1-15 | 2026-08-31 00:54:00 | -14.77407 | 177.49032 | 0° | 0km/h | 159087m | 0m/s | -42.8°C | 0% | 8.5hPa | 2.2V | 00:00:00 | 00:00:00 | 00:00:00 | |
| AA1-15 | 2026-08-31 00:53:49 | -14.77407 | 177.49032 | 0° | 0km/h | 159087m | 0m/s | -42.9°C | 0% | 8.7hPa | 2.2V | 00:00:00 | 00:00:00 | 00:00:00 | |
| AA1-15 | 2026-08-31 00:53:38 | -14.77407 | 177.49032 | 0° | 0km/h | 159087m | 0m/s | -43.3°C | 0% | 8.7hPa | 2.2V | 00:00:00 | 00:00:00 | 00:00:00 | |
| AA1-15 | 2026-08-31 00:53:28 | -14.77407 | 177.49032 | 0° | 0km/h | 159087m | 0m/s | -43.6°C | 0% | 8.8hPa | 2.2V | 00:00:00 | 00:00:00 | 00:00:00 | |
| AA1-15 | 2026-08-31 00:53:18 | -14.77407 | 177.49032 | 0° | 0km/h | 159087m | 0m/s | -43.5°C | 0% | 8.9hPa | 2.2V | 00:00:00 | 00:00:00 | 00:00:00 | |
| AA1-15 | 2026-08-31 00:53:08 | -14.77407 | 177.49032 | 0° | 0km/h | 159087m | 0m/s | -43.1°C | 0% | 9.1hPa | 2.2V | 00:00:00 | 00:00:00 | 00:00:00 | |
| AA1-15 | 2026-08-31 00:52:57 | -14.77407 | 177.49032 | 0° | 0km/h | 159087m | 0m/s | -42.8°C | 0% | 9.2hPa | 2.2V | 00:00:00 | 00:00:00 | 00:00:00 | |
| AA1-15 | 2026-08-31 00:52:46 | -14.77407 | 177.49032 | 0° | 0km/h | 159087m | 0m/s | -42.9°C | 0% | 9.3hPa | 2.2V | 00:00:00 | 00:00:00 | 00:00:00 | |
| AA1-15 | 2026-08-31 00:52:35 | -14.77407 | 177.49032 | 0° | 0km/h | 159087m | 0m/s | -42.9°C | 0% | 9.4hPa | 2.2V | 00:00:00 | 00:00:00 | 00:00:00 | |
| AA1-15 | 2026-08-31 00:52:24 | -14.77407 | 177.49032 | 0° | 0km/h | 159087m | 0m/s | -43°C | 0% | 9.5hPa | 2.2V | 00:00:00 | 00:00:00 | 00:00:00 | |
| AA1-15 | 2026-08-31 00:52:14 | -14.77407 | 177.49032 | 0° | 0km/h | 159087m | 0m/s | -42.8°C | 0% | 9.7hPa | 2.2V | 00:00:00 | 00:00:00 | 00:00:00 | |
| AA1-15 | 2026-08-31 00:52:03 | -14.77407 | 177.49032 | 0° | 0km/h | 159087m | 0m/s | -42.8°C | 0% | 9.7hPa | 2.2V | 00:00:00 | 00:00:00 | 00:00:00 | |
| AA1-15 | 2026-08-31 00:51:52 | -14.77407 | 177.49032 | 0° | 0km/h | 159087m | 0m/s | -43.3°C | 0% | 9.9hPa | 2.2V | 00:00:00 | 00:00:00 | 00:00:00 | |
| AA1-15 | 2026-08-31 00:51:42 | -14.77407 | 177.49032 | 0° | 0km/h | 159087m | 0m/s | -43.8°C | 0% | 9.9hPa | 2.2V | 00:00:00 | 00:00:00 | 00:00:00 | |
| AA1-15 | 2026-08-31 00:51:30 | -14.77407 | 177.49032 | 0° | 0km/h | 159087m | 0m/s | -44.1°C | 0% | 10.1hPa | 2.2V | 00:00:00 | 00:00:00 | 00:00:00 | |
| AA1-15 | 2026-08-31 00:51:20 | -14.77407 | 177.49032 | 0° | 0km/h | 159087m | 0m/s | -44.2°C | 0% | 10.2hPa | 2.2V | 00:00:00 | 00:00:00 | 00:00:00 | |
| AA1-15 | 2026-08-31 00:51:09 | -14.77407 | 177.49032 | 0° | 0km/h | 159087m | 0m/s | -44.8°C | 0% | 10.3hPa | 2.2V | 00:00:00 | 00:00:00 | 00:00:00 | |
| AA1-15 | 2026-08-31 00:50:57 | -14.77407 | 177.49032 | 0° | 0km/h | 159087m | 0m/s | -45.4°C | 0% | 10.4hPa | 2.2V | 00:00:00 | 00:00:00 | 00:00:00 | |
| AA1-15 | 2026-08-31 00:50:47 | -14.77407 | 177.49032 | 0° | 0km/h | 159087m | 0m/s | -45.2°C | 0% | 10.6hPa | 2.2V | 00:00:00 | 00:00:00 | 00:00:00 | |
| AA1-15 | 2026-08-31 00:50:35 | -14.77407 | 177.49032 | 0° | 0km/h | 159087m | 0m/s | -44.9°C | 0% | 10.7hPa | 2.2V | 00:00:00 | 00:00:00 | 00:00:00 | |
| AA1-15 | 2026-08-31 00:50:25 | -14.77407 | 177.49032 | 0° | 0km/h | 159087m | 0m/s | -45.3°C | 0% | 10.8hPa | 2.2V | 00:00:00 | 00:00:00 | 00:00:00 | |
| AA1-15 | 2026-08-31 00:50:13 | -14.77407 | 177.49032 | 0° | 0km/h | 159087m | 0m/s | -45.3°C | 0% | 10.9hPa | 2.2V | 00:00:00 | 00:00:00 | 00:00:00 | |
| AA1-15 | 2026-08-31 00:50:03 | -14.77407 | 177.49032 | 0° | 0km/h | 159087m | 0m/s | -45.2°C | 0% | 11.1hPa | 2.2V | 00:00:00 | 00:00:00 | 00:00:00 | |
| AA1-15 | 2026-08-31 00:49:52 | -14.77407 | 177.49032 | 0° | 0km/h | 159087m | 0m/s | -45.2°C | 0% | 11.2hPa | 2.2V | 00:00:00 | 00:00:00 | 00:00:00 | |
| AA1-15 | 2026-08-31 00:49:41 | -14.77407 | 177.49032 | 0° | 0km/h | 159087m | 0m/s | -45.4°C | 0% | 11.3hPa | 2.2V | 00:00:00 | 00:00:00 | 00:00:00 | |
| AA1-15 | 2026-08-31 00:49:30 | -14.77407 | 177.49032 | 0° | 0km/h | 159087m | 0m/s | -45.7°C | 0% | 11.4hPa | 2.2V | 00:00:00 | 00:00:00 | 00:00:00 | |
| AA1-15 | 2026-08-31 00:49:19 | -14.77407 | 177.49032 | 0° | 0km/h | 159087m | 0m/s | -45.6°C | 0% | 11.6hPa | 2.2V | 00:00:00 | 00:00:00 | 00:00:00 | |
| AA1-15 | 2026-08-31 00:49:09 | -14.77407 | 177.49032 | 0° | 0km/h | 159087m | 0m/s | -45.4°C | 0% | 11.7hPa | 2.2V | 00:00:00 | 00:00:00 | 00:00:00 | |
| AA1-15 | 2026-08-31 00:48:57 | -14.77407 | 177.49032 | 0° | 0km/h | 159087m | 0m/s | -45.3°C | 0% | 11.9hPa | 2.2V | 00:00:00 | 00:00:00 | 00:00:00 | |
| AA1-15 | 2026-08-31 00:48:47 | -14.77407 | 177.49032 | 0° | 0km/h | 159087m | 0m/s | -45.3°C | 0% | 12hPa | 2.2V | 00:00:00 | 00:00:00 | 00:00:00 | |
| AA1-15 | 2026-08-31 00:48:37 | -14.77407 | 177.49032 | 0° | 0km/h | 159087m | 0m/s | -45.6°C | 0% | 12.2hPa | 2.2V | 00:00:00 | 00:00:00 | 00:00:00 | |
| AA1-15 | 2026-08-31 00:48:27 | -14.77407 | 177.49032 | 0° | 0km/h | 159087m | 0m/s | -45.7°C | 0% | 12.3hPa | 2.2V | 00:00:00 | 00:00:00 | 00:00:00 | |
| AA1-15 | 2026-08-31 00:48:15 | -14.77407 | 177.49032 | 0° | 0km/h | 159087m | 0m/s | -45.7°C | 0% | 12.4hPa | 2.2V | 00:00:00 | 00:00:00 | 00:00:00 | |
| AA1-15 | 2026-08-31 00:48:04 | -14.77407 | 177.49032 | 0° | 0km/h | 159087m | 0m/s | -45.6°C | 0% | 12.6hPa | 2.2V | 00:00:00 | 00:00:00 | 00:00:00 | |
| AA1-15 | 2026-08-31 00:47:54 | -14.77407 | 177.49032 | 0° | 0km/h | 159087m | 0m/s | -45.8°C | 0% | 12.7hPa | 2.2V | 00:00:00 | 00:00:00 | 00:00:00 | |
| AA1-15 | 2026-08-31 00:47:43 | -14.77407 | 177.49032 | 0° | 0km/h | 159087m | 0m/s | -46.2°C | 0% | 12.9hPa | 2.2V | 00:00:00 | 00:00:00 | 00:00:00 | |
| AA1-15 | 2026-08-31 00:47:31 | -14.77407 | 177.49032 | 0° | 0km/h | 159087m | 0m/s | -46.8°C | 0% | 13hPa | 2.2V | 00:00:00 | 00:00:00 | 00:00:00 | |
| AA1-15 | 2026-08-31 00:47:21 | -14.77407 | 177.49032 | 0° | 0km/h | 159087m | 0m/s | -47.3°C | 0% | 13.2hPa | 2.2V | 00:00:00 | 00:00:00 | 00:00:00 | |
| AA1-15 | 2026-08-31 00:47:11 | -14.77407 | 177.49032 | 0° | 0km/h | 159087m | 0m/s | -47.7°C | 0% | 13.3hPa | 2.2V | 00:00:00 | 00:00:00 | 00:00:00 | |
| AA1-15 | 2026-08-31 00:46:58 | -14.77407 | 177.49032 | 0° | 0km/h | 159087m | 0m/s | -47.7°C | 0% | 13.5hPa | 2.2V | 00:00:00 | 00:00:00 | 00:00:00 | |
| AA1-15 | 2026-08-31 00:46:47 | -14.77407 | 177.49032 | 0° | 0km/h | 159087m | 0m/s | -47.9°C | 0% | 13.6hPa | 2.2V | 00:00:00 | 00:00:00 | 00:00:00 | |
| AA1-15 | 2026-08-31 00:46:36 | -14.77407 | 177.49032 | 0° | 0km/h | 159087m | 0m/s | -47.9°C | 0% | 13.8hPa | 2.2V | 00:00:00 | 00:00:00 | 00:00:00 | |
| AA1-15 | 2026-08-31 00:46:25 | -14.77407 | 177.49032 | 0° | 0km/h | 159087m | 0m/s | -48.1°C | 0% | 14hPa | 2.2V | 00:00:00 | 00:00:00 | 00:00:00 | |
| AA1-15 | 2026-08-31 00:46:14 | -14.77407 | 177.49032 | 0° | 0km/h | 159087m | 0m/s | -48.2°C | 0% | 14.1hPa | 2.2V | 00:00:00 | 00:00:00 | 00:00:00 | |
| AA1-15 | 2026-08-31 00:46:04 | -14.77407 | 177.49032 | 0° | 0km/h | 159087m | 0m/s | -48.4°C | 0% | 14.2hPa | 2.2V | 00:00:00 | 00:00:00 | 00:00:00 | |
| AA1-15 | 2026-08-31 00:45:53 | -14.77407 | 177.49032 | 0° | 0km/h | 159087m | 0m/s | -48.6°C | 0% | 14.4hPa | 2.2V | 00:00:00 | 00:00:00 | 00:00:00 | |
| AA1-15 | 2026-08-31 00:45:32 | -14.77407 | 177.49032 | 0° | 0km/h | 159087m | 0m/s | -49°C | 0% | 14.7hPa | 2.2V | 00:00:00 | 00:00:00 | 00:00:00 | |
| AA1-15 | 2026-08-31 00:45:21 | -14.77407 | 177.49032 | 0° | 0km/h | 159087m | 0m/s | -49°C | 0% | 14.9hPa | 2.2V | 00:00:00 | 00:00:00 | 00:00:00 | |
| AA1-15 | 2026-08-31 00:45:10 | -14.77407 | 177.49032 | 0° | 0km/h | 159087m | 0m/s | -48.9°C | 0% | 15hPa | 2.2V | 00:00:00 | 00:00:00 | 00:00:00 | |
| AA1-15 | 2026-08-31 00:44:59 | -14.77407 | 177.49032 | 0° | 0km/h | 159087m | 0m/s | -48.9°C | 0% | 15.2hPa | 2.2V | 00:00:00 | 00:00:00 | 00:00:00 | |
| AA1-15 | 2026-08-31 00:44:48 | -14.77407 | 177.49032 | 0° | 0km/h | 159087m | 0m/s | -49°C | 0% | 15.3hPa | 2.2V | 00:00:00 | 00:00:00 | 00:00:00 | |
| AA1-15 | 2026-08-31 00:44:38 | -14.77407 | 177.49032 | 0° | 0km/h | 159087m | 0m/s | -48.9°C | 0% | 15.5hPa | 2.2V | 00:00:00 | 00:00:00 | 00:00:00 | |
| AA1-15 | 2026-08-31 00:44:28 | -14.77407 | 177.49032 | 0° | 0km/h | 159087m | 0m/s | -49°C | 0% | 15.7hPa | 2.2V | 00:00:00 | 00:00:00 | 00:00:00 | |
| AA1-15 | 2026-08-31 00:44:18 | -14.77407 | 177.49032 | 0° | 0km/h | 159087m | 0m/s | -49.2°C | 0% | 15.8hPa | 2.2V | 00:00:00 | 00:00:00 | 00:00:00 | |
| AA1-15 | 2026-08-31 00:43:55 | -14.77407 | 177.49032 | 0° | 0km/h | 159087m | 0m/s | -49.3°C | 0% | 16.2hPa | 2.2V | 00:00:00 | 00:00:00 | 00:00:00 | |
| AA1-15 | 2026-08-31 00:43:44 | -14.77407 | 177.49032 | 0° | 0km/h | 159087m | 0m/s | -49.4°C | 0% | 16.3hPa | 2.2V | 00:00:00 | 00:00:00 | 00:00:00 | |
| AA1-15 | 2026-08-31 00:43:33 | -14.77407 | 177.49032 | 0° | 0km/h | 159087m | 0m/s | -49.5°C | 0% | 16.5hPa | 2.2V | 00:00:00 | 00:00:00 | 00:00:00 | |
| AA1-15 | 2026-08-31 00:43:23 | -14.77407 | 177.49032 | 0° | 0km/h | 159087m | 0m/s | -49.6°C | 0% | 16.7hPa | 2.2V | 00:00:00 | 00:00:00 | 00:00:00 | |
| AA1-15 | 2026-08-31 00:43:12 | -14.77407 | 177.49032 | 0° | 0km/h | 159087m | 0m/s | -49.8°C | 0% | 16.9hPa | 2.2V | 00:00:00 | 00:00:00 | 00:00:00 | |
| AA1-15 | 2026-08-31 00:43:02 | -14.77407 | 177.49032 | 0° | 0km/h | 159087m | 0m/s | -49.9°C | 0% | 17.1hPa | 2.2V | 00:00:00 | 00:00:00 | 00:00:00 | |
| AA1-15 | 2026-08-31 00:42:51 | -14.77407 | 177.49032 | 0° | 0km/h | 159087m | 0m/s | -49.9°C | 0% | 17.2hPa | 2.2V | 00:00:00 | 00:00:00 | 00:00:00 | |
| AA1-15 | 2026-08-31 00:42:40 | -14.77407 | 177.49032 | 0° | 0km/h | 159087m | 0m/s | -50.1°C | 0% | 17.4hPa | 2.2V | 00:00:00 | 00:00:00 | 00:00:00 | |
| AA1-15 | 2026-08-31 00:42:28 | -14.77407 | 177.49032 | 0° | 0km/h | 159087m | 0m/s | -50.2°C | 0% | 17.6hPa | 2.2V | 00:00:00 | 00:00:00 | 00:00:00 | |
| AA1-15 | 2026-08-31 00:42:18 | -14.77407 | 177.49032 | 0° | 0km/h | 159087m | 0m/s | -50.3°C | 0% | 17.8hPa | 2.2V | 00:00:00 | 00:00:00 | 00:00:00 | |
| AA1-15 | 2026-08-31 00:42:07 | -14.77407 | 177.49032 | 0° | 0km/h | 159087m | 0m/s | -50.5°C | 0% | 18hPa | 2.2V | 00:00:00 | 00:00:00 | 00:00:00 | |
| AA1-15 | 2026-08-31 00:41:46 | -14.77407 | 177.49032 | 0° | 0km/h | 159087m | 0m/s | -50.9°C | 0% | 18.4hPa | 2.2V | 00:00:00 | 00:00:00 | 00:00:00 | |
| AA1-15 | 2026-08-31 00:41:02 | -14.77407 | 177.49032 | 0° | 0km/h | 159087m | 0m/s | -51°C | 0% | 19.2hPa | 2.2V | 00:00:00 | 00:00:00 | 00:00:00 | |
| AA1-15 | 2026-08-31 00:40:51 | -14.77407 | 177.49032 | 0° | 0km/h | 159087m | 0m/s | -50.8°C | 0% | 19.4hPa | 2.2V | 00:00:00 | 00:00:00 | 00:00:00 | |
| AA1-15 | 2026-08-31 00:40:30 | -14.77407 | 177.49032 | 0° | 0km/h | 159087m | 0m/s | -50.8°C | 0% | 19.8hPa | 2.2V | 00:00:00 | 00:00:00 | 00:00:00 | |
| AA1-15 | 2026-08-31 00:40:20 | -14.77407 | 177.49032 | 0° | 0km/h | 159087m | 0m/s | -50.7°C | 0% | 20hPa | 2.2V | 00:00:00 | 00:00:00 | 00:00:00 | |
| AA1-15 | 2026-08-31 00:40:09 | -14.77407 | 177.49032 | 0° | 0km/h | 159087m | 0m/s | -50.9°C | 0% | 20.2hPa | 2.2V | 00:00:00 | 00:00:00 | 00:00:00 | |
| AA1-15 | 2026-08-31 00:39:58 | -14.77407 | 177.49032 | 0° | 0km/h | 159087m | 0m/s | -51°C | 0% | 20.4hPa | 2.2V | 00:00:00 | 00:00:00 | 00:00:00 | |
| AA1-15 | 2026-08-31 00:39:47 | -14.77407 | 177.49032 | 0° | 0km/h | 159087m | 0m/s | -51.4°C | 0% | 20.6hPa | 2.2V | 00:00:00 | 00:00:00 | 00:00:00 | |
| AA1-15 | 2026-08-31 00:39:36 | -14.77407 | 177.49032 | 0° | 0km/h | 159087m | 0m/s | -51.8°C | 0% | 20.9hPa | 2.2V | 00:00:00 | 00:00:00 | 00:00:00 | |
| AA1-15 | 2026-08-31 00:39:25 | -14.77407 | 177.49032 | 0° | 0km/h | 159087m | 0m/s | -52.1°C | 0% | 21.1hPa | 2.2V | 00:00:00 | 00:00:00 | 00:00:00 | |
| AA1-15 | 2026-08-31 00:39:14 | -14.77407 | 177.49032 | 0° | 0km/h | 159087m | 0m/s | -52.7°C | 0% | 21.3hPa | 2.2V | 00:00:00 | 00:00:00 | 00:00:00 | |
| AA1-15 | 2026-08-31 00:39:03 | -14.77407 | 177.49032 | 0° | 0km/h | 159087m | 0m/s | -52.9°C | 0% | 21.5hPa | 2.2V | 00:00:00 | 00:00:00 | 00:00:00 | |
| AA1-15 | 2026-08-31 00:38:52 | -14.77407 | 177.49032 | 0° | 0km/h | 159087m | 0m/s | -52.7°C | 0% | 21.7hPa | 2.2V | 00:00:00 | 00:00:00 | 00:00:00 | |
| AA1-15 | 2026-08-31 00:38:42 | -14.77407 | 177.49032 | 0° | 0km/h | 159087m | 0m/s | -52.7°C | 0% | 22hPa | 2.2V | 00:00:00 | 00:00:00 | 00:00:00 | |
| AA1-15 | 2026-08-31 00:38:31 | -14.77407 | 177.49032 | 0° | 0km/h | 159087m | 0m/s | -52.6°C | 0% | 22.1hPa | 2.2V | 00:00:00 | 00:00:00 | 00:00:00 | |
| AA1-15 | 2026-08-31 00:38:21 | -14.77407 | 177.49032 | 0° | 0km/h | 159087m | 0m/s | -52.9°C | 0% | 22.4hPa | 2.2V | 00:00:00 | 00:00:00 | 00:00:00 | |
| AA1-15 | 2026-08-31 00:38:10 | -14.77407 | 177.49032 | 0° | 0km/h | 159087m | 0m/s | -52.8°C | 0% | 22.6hPa | 2.2V | 00:00:00 | 00:00:00 | 00:00:00 | |
| AA1-15 | 2026-08-31 00:37:59 | -14.77407 | 177.49032 | 0° | 0km/h | 159087m | 0m/s | -52.9°C | 0% | 22.8hPa | 2.2V | 00:00:00 | 00:00:00 | 00:00:00 | |
| AA1-15 | 2026-08-31 00:37:49 | -14.77407 | 177.49032 | 0° | 0km/h | 159087m | 0m/s | -52.9°C | 0% | 23.1hPa | 2.2V | 00:00:00 | 00:00:00 | 00:00:00 | |
| AA1-15 | 2026-08-31 00:37:39 | -14.77407 | 177.49032 | 0° | 0km/h | 159087m | 0m/s | -52.6°C | 0% | 23.3hPa | 2.2V | 00:00:00 | 00:00:00 | 00:00:00 | |
| AA1-15 | 2026-08-31 00:37:28 | -14.77407 | 177.49032 | 0° | 0km/h | 159087m | 0m/s | -52.5°C | 0% | 23.5hPa | 2.2V | 00:00:00 | 00:00:00 | 00:00:00 | |
| AA1-15 | 2026-08-31 00:37:18 | -14.77407 | 177.49032 | 0° | 0km/h | 159087m | 0m/s | -52.5°C | 0% | 23.7hPa | 2.2V | 00:00:00 | 00:00:00 | 00:00:00 | |
| AA1-15 | 2026-08-31 00:37:07 | -14.77407 | 177.49032 | 0° | 0km/h | 159087m | 0m/s | -52.8°C | 0% | 23.9hPa | 2.2V | 00:00:00 | 00:00:00 | 00:00:00 | |
| AA1-15 | 2026-08-31 00:36:56 | -14.77407 | 177.49032 | 0° | 0km/h | 159087m | 0m/s | -53°C | 0% | 24.2hPa | 2.2V | 00:00:00 | 00:00:00 | 00:00:00 | |
| AA1-15 | 2026-08-31 00:36:46 | -14.77407 | 177.49032 | 0° | 0km/h | 159087m | 0m/s | -53°C | 0% | 24.4hPa | 2.2V | 00:00:00 | 00:00:00 | 00:00:00 | |
| AA1-15 | 2026-08-31 00:36:34 | -14.77407 | 177.49032 | 0° | 0km/h | 159087m | 0m/s | -53°C | 0% | 24.7hPa | 2.2V | 00:00:00 | 00:00:00 | 00:00:00 | |
| AA1-15 | 2026-08-31 00:36:23 | -14.77407 | 177.49032 | 0° | 0km/h | 159087m | 0m/s | -53°C | 0% | 25hPa | 2.2V | 00:00:00 | 00:00:00 | 00:00:00 | |
| AA1-15 | 2026-08-31 00:36:13 | -14.77407 | 177.49032 | 0° | 0km/h | 159087m | 0m/s | -52.9°C | 0% | 25.2hPa | 2.2V | 00:00:00 | 00:00:00 | 00:00:00 | |
| AA1-15 | 2026-08-31 00:36:02 | -14.77407 | 177.49032 | 0° | 0km/h | 159087m | 0m/s | -53.3°C | 0% | 25.4hPa | 2.2V | 00:00:00 | 00:00:00 | 00:00:00 | |
| AA1-15 | 2026-08-31 00:35:52 | -14.77407 | 177.49032 | 0° | 0km/h | 159087m | 0m/s | -53.3°C | 0% | 25.7hPa | 2.2V | 00:00:00 | 00:00:00 | 00:00:00 | |
| AA1-15 | 2026-08-31 00:35:41 | -14.77407 | 177.49032 | 0° | 0km/h | 159087m | 0m/s | -53.5°C | 0% | 26hPa | 2.2V | 00:00:00 | 00:00:00 | 00:00:00 | |
| AA1-15 | 2026-08-31 00:35:30 | -14.77407 | 177.49032 | 0° | 0km/h | 159087m | 0m/s | -53.5°C | 0% | 26.2hPa | 2.2V | 00:00:00 | 00:00:00 | 00:00:00 | |
| AA1-15 | 2026-08-31 00:35:20 | -14.77407 | 177.49032 | 0° | 0km/h | 159087m | 0m/s | -53.5°C | 0% | 26.4hPa | 2.2V | 00:00:00 | 00:00:00 | 00:00:00 | |
| AA1-15 | 2026-08-31 00:35:08 | -14.77407 | 177.49032 | 0° | 0km/h | 159087m | 0m/s | -53.7°C | 0% | 26.7hPa | 2.2V | 00:00:00 | 00:00:00 | 00:00:00 | |
| AA1-15 | 2026-08-31 00:34:58 | -14.77407 | 177.49032 | 0° | 0km/h | 159087m | 0m/s | -53.5°C | 0% | 26.9hPa | 2.2V | 00:00:00 | 00:00:00 | 00:00:00 | |
| AA1-15 | 2026-08-31 00:34:48 | -14.77407 | 177.49032 | 0° | 0km/h | 159087m | 0m/s | -53.6°C | 0% | 27.2hPa | 2.2V | 00:00:00 | 00:00:00 | 00:00:00 | |
| AA1-15 | 2026-08-31 00:34:37 | -14.77407 | 177.49032 | 0° | 0km/h | 159087m | 0m/s | -53.8°C | 0% | 27.4hPa | 2.2V | 00:00:00 | 00:00:00 | 00:00:00 | |
| AA1-15 | 2026-08-31 00:34:26 | -14.77407 | 177.49032 | 0° | 0km/h | 159087m | 0m/s | -53.8°C | 0% | 27.7hPa | 2.2V | 00:00:00 | 00:00:00 | 00:00:00 | |
| AA1-15 | 2026-08-31 00:34:16 | -14.77407 | 177.49032 | 0° | 0km/h | 159087m | 0m/s | -53.8°C | 0% | 27.9hPa | 2.2V | 00:00:00 | 00:00:00 | 00:00:00 | |
| AA1-15 | 2026-08-31 00:34:04 | -14.77407 | 177.49032 | 0° | 0km/h | 159087m | 0m/s | -53.9°C | 0% | 28.3hPa | 2.2V | 00:00:00 | 00:00:00 | 00:00:00 | |
| AA1-15 | 2026-08-31 00:33:54 | -14.77407 | 177.49032 | 0° | 0km/h | 159087m | 0m/s | -53.8°C | 0% | 28.5hPa | 2.2V | 00:00:00 | 00:00:00 | 00:00:00 | |
| AA1-15 | 2026-08-31 00:33:44 | -14.77407 | 177.49032 | 0° | 0km/h | 159087m | 0m/s | -53.6°C | 0% | 28.8hPa | 2.2V | 00:00:00 | 00:00:00 | 00:00:00 | |
| AA1-15 | 2026-08-31 00:33:34 | -14.77407 | 177.49032 | 0° | 0km/h | 159087m | 0m/s | -53.4°C | 0% | 29hPa | 2.2V | 00:00:00 | 00:00:00 | 00:00:00 | |
| AA1-15 | 2026-08-31 00:33:23 | -14.77407 | 177.49032 | 0° | 0km/h | 159087m | 0m/s | -53.5°C | 0% | 29.3hPa | 2.2V | 00:00:00 | 00:00:00 | 00:00:00 | |
| AA1-15 | 2026-08-31 00:33:12 | -14.77407 | 177.49032 | 0° | 0km/h | 159087m | 0m/s | -53.5°C | 0% | 29.6hPa | 2.2V | 00:00:00 | 00:00:00 | 00:00:00 | |
| AA1-15 | 2026-08-31 00:33:01 | -14.77407 | 177.49032 | 0° | 0km/h | 159087m | 0m/s | -53.5°C | 0% | 29.8hPa | 2.2V | 00:00:00 | 00:00:00 | 00:00:00 | |
| AA1-15 | 2026-08-31 00:32:50 | -14.77407 | 177.49032 | 0° | 0km/h | 159087m | 0m/s | -53.6°C | 0% | 30.1hPa | 2.2V | 00:00:00 | 00:00:00 | 00:00:00 | |
| AA1-15 | 2026-08-31 00:32:39 | -14.77407 | 177.49032 | 0° | 0km/h | 159087m | 0m/s | -53.6°C | 0% | 30.5hPa | 2.2V | 00:00:00 | 00:00:00 | 00:00:00 | |
| AA1-15 | 2026-08-31 00:32:29 | -14.77407 | 177.49032 | 0° | 0km/h | 159087m | 0m/s | -53.6°C | 0% | 30.8hPa | 2.2V | 00:00:00 | 00:00:00 | 00:00:00 | |
| AA1-15 | 2026-08-31 00:32:18 | -14.77407 | 177.49032 | 0° | 0km/h | 159087m | 0m/s | -53.4°C | 0% | 31.1hPa | 2.2V | 00:00:00 | 00:00:00 | 00:00:00 | |
| AA1-15 | 2026-08-31 00:32:07 | -14.77407 | 177.49032 | 0° | 0km/h | 159087m | 0m/s | -53.3°C | 0% | 31.4hPa | 2.2V | 00:00:00 | 00:00:00 | 00:00:00 | |
| AA1-15 | 2026-08-31 00:31:57 | -14.77407 | 177.49032 | 0° | 0km/h | 159087m | 0m/s | -53.4°C | 0% | 31.6hPa | 2.2V | 00:00:00 | 00:00:00 | 00:00:00 | |
| AA1-15 | 2026-08-31 00:31:45 | -14.77407 | 177.49032 | 0° | 0km/h | 159087m | 0m/s | -53.3°C | 0% | 32hPa | 2.2V | 00:00:00 | 00:00:00 | 00:00:00 | |
| AA1-15 | 2026-08-31 00:31:35 | -14.77407 | 177.49032 | 0° | 0km/h | 159087m | 0m/s | -53.3°C | 0% | 32.3hPa | 2.2V | 00:00:00 | 00:00:00 | 00:00:00 | |
| AA1-15 | 2026-08-31 00:31:23 | -14.77407 | 177.49032 | 0° | 0km/h | 159087m | 0m/s | -53.2°C | 0% | 32.6hPa | 2.2V | 00:00:00 | 00:00:00 | 00:00:00 | |
| AA1-15 | 2026-08-31 00:31:13 | -14.77407 | 177.49032 | 0° | 0km/h | 159087m | 0m/s | -53°C | 0% | 32.9hPa | 2.2V | 00:00:00 | 00:00:00 | 00:00:00 | |
| AA1-15 | 2026-08-31 00:31:02 | -14.77407 | 177.49032 | 0° | 0km/h | 159087m | 0m/s | -52.7°C | 0% | 33.2hPa | 2.2V | 00:00:00 | 00:00:00 | 00:00:00 | |
| AA1-15 | 2026-08-31 00:30:50 | -14.77407 | 177.49032 | 0° | 0km/h | 159087m | 0m/s | -52.7°C | 0% | 33.6hPa | 2.2V | 00:00:00 | 00:00:00 | 00:00:00 | |
| AA1-15 | 2026-08-31 00:30:39 | -14.77407 | 177.49032 | 0° | 0km/h | 159087m | 0m/s | -52.5°C | 0% | 33.9hPa | 2.2V | 00:00:00 | 00:00:00 | 00:00:00 | |
| AA1-15 | 2026-08-31 00:30:29 | -14.77407 | 177.49032 | 0° | 0km/h | 159087m | 0m/s | -52.3°C | 0% | 34.2hPa | 2.2V | 00:00:00 | 00:00:00 | 00:00:00 | |
| AA1-15 | 2026-08-31 00:30:18 | -14.77407 | 177.49032 | 0° | 0km/h | 159087m | 0m/s | -52.8°C | 0% | 34.6hPa | 2.2V | 00:00:00 | 00:00:00 | 00:00:00 | |
| AA1-15 | 2026-08-31 00:30:08 | -14.77407 | 177.49032 | 0° | 0km/h | 159087m | 0m/s | -52.8°C | 0% | 34.9hPa | 2.2V | 00:00:00 | 00:00:00 | 00:00:00 | |
| AA1-15 | 2026-08-31 00:29:58 | -14.77407 | 177.49032 | 0° | 0km/h | 159087m | 0m/s | -52.6°C | 0% | 35.2hPa | 2.2V | 00:00:00 | 00:00:00 | 00:00:00 | |
| AA1-15 | 2026-08-31 00:29:47 | -14.77407 | 177.49032 | 0° | 0km/h | 159087m | 0m/s | -52.7°C | 0% | 35.5hPa | 2.2V | 00:00:00 | 00:00:00 | 00:00:00 | |
| AA1-15 | 2026-08-31 00:29:37 | -14.77407 | 177.49032 | 0° | 0km/h | 159087m | 0m/s | -53.2°C | 0% | 35.9hPa | 2.2V | 00:00:00 | 00:00:00 | 00:00:00 | |
| AA1-15 | 2026-08-31 00:29:27 | -14.77407 | 177.49032 | 0° | 0km/h | 159087m | 0m/s | -53.4°C | 0% | 36.2hPa | 2.2V | 00:00:00 | 00:00:00 | 00:00:00 | |
| AA1-15 | 2026-08-31 00:29:16 | -14.77407 | 177.49032 | 0° | 0km/h | 159087m | 0m/s | -53.3°C | 0% | 36.5hPa | 2.2V | 00:00:00 | 00:00:00 | 00:00:00 | |
| AA1-15 | 2026-08-31 00:29:06 | -14.77407 | 177.49032 | 0° | 0km/h | 159087m | 0m/s | -53.3°C | 0% | 36.9hPa | 2.2V | 00:00:00 | 00:00:00 | 00:00:00 | |
| AA1-15 | 2026-08-31 00:28:54 | -14.77407 | 177.49032 | 0° | 0km/h | 159087m | 0m/s | -53.2°C | 0% | 37.2hPa | 2.2V | 00:00:00 | 00:00:00 | 00:00:00 | |
| AA1-15 | 2026-08-31 00:28:42 | -14.77407 | 177.49032 | 0° | 0km/h | 159087m | 0m/s | -53.1°C | 0% | 37.6hPa | 2.2V | 00:00:00 | 00:00:00 | 00:00:00 | |
| AA1-15 | 2026-08-31 00:28:32 | -14.77407 | 177.49032 | 0° | 0km/h | 159087m | 0m/s | -52.9°C | 0% | 37.9hPa | 2.2V | 00:00:00 | 00:00:00 | 00:00:00 | |
| AA1-15 | 2026-08-31 00:28:21 | -14.77407 | 177.49032 | 0° | 0km/h | 159087m | 0m/s | -52.6°C | 0% | 38.3hPa | 2.2V | 00:00:00 | 00:00:00 | 00:00:00 | |
| AA1-15 | 2026-08-31 00:28:10 | -14.77407 | 177.49032 | 0° | 0km/h | 159087m | 0m/s | -53°C | 0% | 39.5hPa | 2.2V | 00:00:00 | 00:00:00 | 00:00:00 | |
| AA1-15 | 2026-08-31 00:27:35 | -14.77407 | 177.49032 | 0° | 0km/h | 159087m | 0m/s | -53°C | 0% | 39.8hPa | 2.2V | 00:00:00 | 00:00:00 | 00:00:00 | |
| AA1-15 | 2026-08-31 00:27:23 | -14.77407 | 177.49032 | 0° | 0km/h | 159087m | 0m/s | -53°C | 0% | 40.2hPa | 2.2V | 00:00:00 | 00:00:00 | 00:00:00 | |
| AA1-15 | 2026-08-31 00:27:12 | -14.77407 | 177.49032 | 0° | 0km/h | 159087m | 0m/s | -52.9°C | 0% | 40.6hPa | 2.2V | 00:00:00 | 00:00:00 | 00:00:00 | |
| AA1-15 | 2026-08-31 00:27:02 | -14.77407 | 177.49032 | 0° | 0km/h | 159087m | 0m/s | -52.8°C | 0% | 41hPa | 2.2V | 00:00:00 | 00:00:00 | 00:00:00 | |
| AA1-15 | 2026-08-31 00:26:50 | -14.77407 | 177.49032 | 0° | 0km/h | 159087m | 0m/s | -52.7°C | 0% | 41.4hPa | 2.2V | 00:00:00 | 00:00:00 | 00:00:00 | |
| AA1-15 | 2026-08-31 00:26:40 | -14.77407 | 177.49032 | 0° | 0km/h | 159087m | 0m/s | -52.7°C | 0% | 41.8hPa | 2.2V | 00:00:00 | 00:00:00 | 00:00:00 | |
| AA1-15 | 2026-08-31 00:26:29 | -14.77407 | 177.49032 | 0° | 0km/h | 159087m | 0m/s | -52.7°C | 0% | 42.1hPa | 2.2V | 00:00:00 | 00:00:00 | 00:00:00 | |
| AA1-15 | 2026-08-31 00:26:17 | -14.77407 | 177.49032 | 0° | 0km/h | 159087m | 0m/s | -52.6°C | 0% | 42.5hPa | 2.2V | 00:00:00 | 00:00:00 | 00:00:00 | |
| AA1-15 | 2026-08-31 00:26:06 | -14.77407 | 177.49032 | 0° | 0km/h | 159087m | 0m/s | -53.3°C | 0% | 42.9hPa | 2.2V | 00:00:00 | 00:00:00 | 00:00:00 | |
| AA1-15 | 2026-08-31 00:25:56 | -14.77407 | 177.49032 | 0° | 0km/h | 159087m | 0m/s | -53.7°C | 0% | 43.3hPa | 2.2V | 00:00:00 | 00:00:00 | 00:00:00 | |
| AA1-15 | 2026-08-31 00:25:46 | -14.77407 | 177.49032 | 0° | 0km/h | 159087m | 0m/s | -53.8°C | 0% | 43.6hPa | 2.2V | 00:00:00 | 00:00:00 | 00:00:00 | |
| AA1-15 | 2026-08-31 00:25:35 | -14.77407 | 177.49032 | 0° | 0km/h | 159087m | 0m/s | -53.9°C | 0% | 44hPa | 2.2V | 00:00:00 | 00:00:00 | 00:00:00 | |
| AA1-15 | 2026-08-31 00:25:24 | -14.77407 | 177.49032 | 0° | 0km/h | 159087m | 0m/s | -54.4°C | 0% | 44.5hPa | 2.2V | 00:00:00 | 00:00:00 | 00:00:00 | |
| AA1-15 | 2026-08-31 00:25:13 | -14.77407 | 177.49032 | 0° | 0km/h | 159087m | 0m/s | -54.5°C | 0% | 44.8hPa | 2.2V | 00:00:00 | 00:00:00 | 00:00:00 | |
| AA1-15 | 2026-08-31 00:25:02 | -14.77407 | 177.49032 | 0° | 0km/h | 159087m | 0m/s | -54.3°C | 0% | 45.2hPa | 2.2V | 00:00:00 | 00:00:00 | 00:00:00 | |
| AA1-15 | 2026-08-31 00:24:51 | -14.77407 | 177.49032 | 0° | 0km/h | 159087m | 0m/s | -54°C | 0% | 45.6hPa | 2.2V | 00:00:00 | 00:00:00 | 00:00:00 | |
| AA1-15 | 2026-08-31 00:24:41 | -14.77407 | 177.49032 | 0° | 0km/h | 159087m | 0m/s | -53.9°C | 0% | 46.1hPa | 2.2V | 00:00:00 | 00:00:00 | 00:00:00 | |
| AA1-15 | 2026-08-31 00:24:30 | -14.77407 | 177.49032 | 0° | 0km/h | 159087m | 0m/s | -53.9°C | 0% | 46.5hPa | 2.2V | 00:00:00 | 00:00:00 | 00:00:00 | |
| AA1-15 | 2026-08-31 00:24:18 | -14.77407 | 177.49032 | 0° | 0km/h | 159087m | 0m/s | -53.9°C | 0% | 46.9hPa | 2.2V | 00:00:00 | 00:00:00 | 00:00:00 | |
| AA1-15 | 2026-08-31 00:24:07 | -14.77407 | 177.49032 | 0° | 0km/h | 159087m | 0m/s | -53.8°C | 0% | 47.3hPa | 2.2V | 00:00:00 | 00:00:00 | 00:00:00 | |
| AA1-15 | 2026-08-31 00:23:56 | -14.77407 | 177.49032 | 0° | 0km/h | 159087m | 0m/s | -53.8°C | 0% | 47.8hPa | 2.2V | 00:00:00 | 00:00:00 | 00:00:00 | |
| AA1-15 | 2026-08-31 00:23:44 | -14.77407 | 177.49032 | 0° | 0km/h | 159087m | 0m/s | -53.7°C | 0% | 48.2hPa | 2.2V | 00:00:00 | 00:00:00 | 00:00:00 | |
| AA1-15 | 2026-08-31 00:23:34 | -14.77407 | 177.49032 | 0° | 0km/h | 159087m | 0m/s | -53.7°C | 0% | 48.6hPa | 2.2V | 00:00:00 | 00:00:00 | 00:00:00 | |
| AA1-15 | 2026-08-31 00:23:23 | -14.77407 | 177.49032 | 0° | 0km/h | 159087m | 0m/s | -53.5°C | 0% | 49hPa | 2.2V | 00:00:00 | 00:00:00 | 00:00:00 | |
| AA1-15 | 2026-08-31 00:23:13 | -14.77407 | 177.49032 | 0° | 0km/h | 159087m | 0m/s | -53.6°C | 0% | 49.4hPa | 2.2V | 00:00:00 | 00:00:00 | 00:00:00 | |
| AA1-15 | 2026-08-31 00:23:01 | -14.77407 | 177.49032 | 0° | 0km/h | 159087m | 0m/s | -53.5°C | 0% | 50hPa | 2.2V | 00:00:00 | 00:00:00 | 00:00:00 | |
| AA1-15 | 2026-08-31 00:22:50 | -14.77407 | 177.49032 | 0° | 0km/h | 159087m | 0m/s | -53.6°C | 0% | 50.4hPa | 2.2V | 00:00:00 | 00:00:00 | 00:00:00 | |
| AA1-15 | 2026-08-31 00:22:40 | -14.77407 | 177.49032 | 0° | 0km/h | 159087m | 0m/s | -53.6°C | 0% | 50.9hPa | 2.2V | 00:00:00 | 00:00:00 | 00:00:00 | |
| AA1-15 | 2026-08-31 00:22:29 | -14.77407 | 177.49032 | 0° | 0km/h | 159087m | 0m/s | -53.2°C | 0% | 51.4hPa | 2.2V | 00:00:00 | 00:00:00 | 00:00:00 | |
| AA1-15 | 2026-08-31 00:22:18 | -14.77407 | 177.49032 | 0° | 0km/h | 159087m | 0m/s | -53.1°C | 0% | 51.8hPa | 2.2V | 00:00:00 | 00:00:00 | 00:00:00 | |
| AA1-15 | 2026-08-31 00:22:08 | -14.77407 | 177.49032 | 0° | 0km/h | 159087m | 0m/s | -53.1°C | 0% | 52.1hPa | 2.2V | 00:00:00 | 00:00:00 | 00:00:00 | |
| AA1-15 | 2026-08-31 00:21:57 | -14.77407 | 177.49032 | 0° | 0km/h | 159087m | 0m/s | -53.1°C | 0% | 52.6hPa | 2.2V | 00:00:00 | 00:00:00 | 00:00:00 | |
| AA1-15 | 2026-08-31 00:21:47 | -14.77407 | 177.49032 | 0° | 0km/h | 159087m | 0m/s | -53.3°C | 0% | 53.1hPa | 2.2V | 00:00:00 | 00:00:00 | 00:00:00 | |
| AA1-15 | 2026-08-31 00:21:37 | -14.77407 | 177.49032 | 0° | 0km/h | 159087m | 0m/s | -53.5°C | 0% | 53.5hPa | 2.2V | 00:00:00 | 00:00:00 | 00:00:00 | |
| AA1-15 | 2026-08-31 00:21:26 | -14.77407 | 177.49032 | 0° | 0km/h | 159087m | 0m/s | -53.2°C | 0% | 53.9hPa | 2.2V | 00:00:00 | 00:00:00 | 00:00:00 | |
GPX KML Map
© wettersonde.net (DO2JMG) - 2026 - -